| time (UTC) | temp F | wind direction | speed MPH | gust MPH | rain 1hr in | rain 24hr in | rain mn in | humidity % | barometer mb |
| 20260904174521 | 96 | 181 | 5.0 | 11.0 | 0.00 | 0.00 | 0.00 | 51 | 1012.9 |
| 20260904173034 | 96 | 165 | 5.0 | 11.0 | 0.00 | 0.00 | 0.00 | 51 | 1013.0 |
| 20260904171516 | 95 | 207 | 5.0 | 10.0 | 0.00 | 0.00 | 0.00 | 52 | 1013.0 |
| 20260904170014 | 94 | 211 | 4.0 | 11.0 | 0.00 | 0.00 | 0.00 | 54 | 1013.3 |
| 20260904164513 | 93 | 267 | 5.0 | 11.0 | 0.00 | 0.00 | 0.00 | 55 | 1013.4 |
| 20260904163006 | 93 | 171 | 4.0 | 11.0 | 0.00 | 0.00 | 0.00 | 56 | 1013.3 |
| 20260904161632 | 92 | 165 | 6.0 | 11.0 | 0.00 | 0.00 | 0.00 | 58 | 1013.5 |
| 20260904160059 | 91 | 219 | 3.0 | 11.0 | 0.00 | 0.00 | 0.00 | 59 | 1013.6 |
| 20260904154557 | 91 | 123 | 4.0 | 11.0 | 0.00 | 0.00 | 0.00 | 58 | 1013.4 |
| 20260904153100 | 90 | 166 | 3.0 | 12.0 | 0.00 | 0.00 | 0.00 | 60 | 1013.4 |
| 20260904151551 | 89 | 165 | 2.0 | 9.0 | 0.00 | 0.00 | 0.00 | 62 | 1013.4 |
| 20260904150057 | 88 | 188 | 5.0 | 9.0 | 0.00 | 0.00 | 0.00 | 63 | 1013.4 |
| 20260904144559 | 87 | 263 | 3.0 | 8.0 | 0.00 | 0.00 | 0.00 | 65 | 1013.5 |
| 20260904143050 | 86 | 151 | 4.0 | 9.0 | 0.00 | 0.00 | 0.00 | 66 | 1013.4 |
| 20260904141540 | 84 | 144 | 5.0 | 10.0 | 0.00 | 0.00 | 0.00 | 68 | 1013.5 |
| 20260904140052 | 83 | 146 | 2.0 | 5.0 | 0.00 | 0.00 | 0.00 | 73 | 1013.4 |
| 20260904134540 | 81 | 154 | 2.0 | 5.0 | 0.00 | 0.00 | 0.00 | 75 | 1013.5 |
| 20260904133038 | 80 | 181 | 2.0 | 6.0 | 0.00 | 0.00 | 0.00 | 77 | 1013.4 |
| 20260904131537 | 78 | 165 | 1.0 | 4.0 | 0.00 | 0.00 | 0.00 | 79 | 1013.4 |
| 20260904130037 | 78 | 161 | 1.0 | 4.0 | 0.00 | 0.00 | 0.00 | 80 | 1013.1 |
| 20260904124534 | 78 | 146 | 1.0 | 3.0 | 0.00 | 0.00 | 0.00 | 80 | 1013.2 |
| 20260904123031 | 77 | 189 | 0.0 | 4.0 | 0.00 | 0.00 | 0.00 | 80 | 1013.1 |
| 20260904121532 | 78 | 177 | 0.0 | 4.0 | 0.00 | 0.00 | 0.00 | 80 | 1013.0 |
| 20260904120030 | 78 | 148 | 1.0 | 3.0 | 0.00 | 0.00 | 0.00 | 79 | 1012.9 |
| 20260904114537 | 78 | 178 | 1.0 | 6.0 | 0.00 | 0.00 | 0.00 | 79 | 1012.9 |
| 20260904113034 | 78 | 196 | 2.0 | 6.0 | 0.00 | 0.00 | 0.00 | 79 | 1012.7 |
| 20260904111525 | 78 | 175 | 1.0 | 3.0 | 0.00 | 0.00 | 0.00 | 78 | 1012.8 |
| 20260904110022 | 79 | 180 | 1.0 | 4.0 | 0.00 | 0.00 | 0.00 | 78 | 1012.6 |
| 20260904104521 | 79 | 171 | 2.0 | 7.0 | 0.00 | 0.00 | 0.00 | 77 | 1012.6 |
| 20260904103019 | 79 | 190 | 1.0 | 4.0 | 0.00 | 0.00 | 0.00 | 77 | 1012.4 |
| 20260904101520 | 79 | 160 | 1.0 | 5.0 | 0.00 | 0.00 | 0.00 | 76 | 1012.2 |
| 20260904100018 | 79 | 175 | 1.0 | 3.0 | 0.00 | 0.00 | 0.00 | 75 | 1012.1 |
| 20260904094531 | 80 | 173 | 1.0 | 5.0 | 0.00 | 0.00 | 0.00 | 75 | 1012.1 |
| 20260904093015 | 80 | 172 | 1.0 | 5.0 | 0.00 | 0.00 | 0.00 | 74 | 1012.2 |
| 20260904091513 | 80 | 196 | 1.0 | 4.0 | 0.00 | 0.00 | 0.00 | 74 | 1011.9 |
| 20260904090008 | 80 | 184 | 1.0 | 4.0 | 0.00 | 0.00 | 0.00 | 73 | 1011.7 |
| 20260904084508 | 81 | 193 | 1.0 | 4.0 | 0.00 | 0.00 | 0.00 | 72 | 1011.7 |
| 20260904083006 | 81 | 210 | 1.0 | 5.0 | 0.00 | 0.00 | 0.00 | 72 | 1011.7 |
| 20260904081506 | 81 | 188 | 2.0 | 5.0 | 0.00 | 0.00 | 0.00 | 71 | 1011.8 |
| 20260904080003 | 81 | 171 | 1.0 | 5.0 | 0.00 | 0.00 | 0.00 | 70 | 1011.4 |
| 20260904074502 | 81 | 168 | 1.0 | 4.0 | 0.00 | 0.00 | 0.00 | 70 | 1011.5 |
| 20260904073005 | 81 | 186 | 1.0 | 4.0 | 0.00 | 0.00 | 0.00 | 70 | 1011.7 |
| 20260904071501 | 82 | 171 | 1.0 | 4.0 | 0.00 | 0.00 | 0.00 | 70 | 1011.5 |
| 20260904070059 | 82 | 169 | 0.0 | 3.0 | 0.00 | 0.00 | 0.00 | 69 | 1011.5 |
| 20260904064614 | 83 | 184 | 1.0 | 4.0 | 0.00 | 0.00 | 0.00 | 68 | 1011.6 |
| 20260904063108 | 84 | 187 | 0.0 | 3.0 | 0.00 | 0.00 | 0.00 | 67 | 1011.7 |
| 20260904061552 | 84 | 220 | 3.0 | 7.0 | 0.00 | 0.00 | 0.00 | 66 | 1011.5 |
| 20260904060108 | 84 | 228 | 3.0 | 8.0 | 0.00 | 0.00 | 0.00 | 66 | 1011.5 |
| 20260904054553 | 84 | 211 | 2.0 | 6.0 | 0.00 | 0.00 | 0.00 | 66 | 1011.4 |
| 20260904053048 | 85 | 230 | 1.0 | 5.0 | 0.00 | 0.00 | 0.00 | 65 | 1011.4 |
| 20260904051544 | 85 | 200 | 1.0 | 3.0 | 0.00 | 0.00 | 0.00 | 64 | 1011.3 |
| 20260904050050 | 86 | 206 | 1.0 | 4.0 | 0.00 | 0.00 | 0.00 | 63 | 1011.3 |
| 20260904044545 | 86 | 223 | 2.0 | 8.0 | 0.00 | 0.00 | 0.00 | 63 | 1011.2 |
| 20260904043040 | 86 | 149 | 3.0 | 8.0 | 0.00 | 0.00 | 0.00 | 62 | 1011.3 |
| 20260904041543 | 86 | 236 | 1.0 | 4.0 | 0.00 | 0.00 | 0.00 | 62 | 1011.4 |
| 20260904040043 | 86 | 228 | 1.0 | 7.0 | 0.00 | 0.00 | 0.00 | 62 | 1011.3 |
| 20260904034544 | 86 | 225 | 1.0 | 5.0 | 0.00 | 0.00 | 0.00 | 63 | 1011.3 |
| 20260904033039 | 86 | 178 | 1.0 | 4.0 | 0.00 | 0.00 | 0.00 | 62 | 1011.2 |
| 20260904031539 | 87 | 199 | 1.0 | 2.0 | 0.00 | 0.00 | 0.00 | 61 | 1011.2 |
| 20260904030039 | 88 | 175 | 1.0 | 2.0 | 0.00 | 0.00 | 0.00 | 60 | 1011.1 |
| 20260904024538 | 88 | 176 | 1.0 | 3.0 | 0.00 | 0.00 | 0.00 | 58 | 1010.8 |
| 20260904023041 | 89 | 173 | 2.0 | 5.0 | 0.00 | 0.00 | 0.00 | 57 | 1010.6 |
| 20260904021548 | 89 | 166 | 2.0 | 4.0 | 0.00 | 0.00 | 0.00 | 57 | 1010.5 |
| 20260904020036 | 89 | 184 | 2.0 | 6.0 | 0.00 | 0.00 | 0.00 | 56 | 1010.4 |
| 20260904014536 | 90 | 191 | 0.0 | 3.0 | 0.00 | 0.00 | 0.00 | 56 | 1010.3 |
| 20260904013050 | 90 | 201 | 1.0 | 5.0 | 0.00 | 0.00 | 0.00 | 55 | 1010.0 |
| 20260904011535 | 91 | 174 | 1.0 | 4.0 | 0.00 | 0.00 | 0.00 | 54 | 1009.7 |
| 20260904010035 | 92 | 178 | 2.0 | 5.0 | 0.00 | 0.00 | 0.00 | 53 | 1009.6 |
| 20260904004535 | 93 | 191 | 2.0 | 7.0 | 0.00 | 0.00 | 0.00 | 52 | 1009.5 |
| 20260904003033 | 93 | 130 | 5.0 | 9.0 | 0.00 | 0.00 | 0.00 | 51 | 1009.5 |
| 20260904001551 | 94 | 171 | 5.0 | 10.0 | 0.00 | 0.00 | 0.00 | 51 | 1009.6 |
| 20260904000032 | 94 | 172 | 5.0 | 11.0 | 0.00 | 0.00 | 0.00 | 50 | 1009.5 |
| 20260903234533 | 95 | 157 | 8.0 | 14.0 | 0.00 | 0.00 | 0.00 | 49 | 1009.6 |
| 20260903233041 | 96 | 234 | 5.0 | 13.0 | 0.00 | 0.00 | 0.00 | 49 | 1009.4 |
| 20260903231535 | 96 | 139 | 5.0 | 10.0 | 0.00 | 0.00 | 0.00 | 48 | 1009.4 |
| 20260903230033 | 96 | 211 | 3.0 | 11.0 | 0.00 | 0.00 | 0.00 | 49 | 1009.7 |
| 20260903224531 | 96 | 168 | 4.0 | 18.0 | 0.00 | 0.00 | 0.00 | 50 | 1009.6 |
| 20260903223029 | 97 | 137 | 7.0 | 14.0 | 0.00 | 0.00 | 0.00 | 49 | 1009.6 |
| 20260903221529 | 97 | 171 | 6.0 | 15.0 | 0.00 | 0.00 | 0.00 | 49 | 1009.4 |
| 20260903220027 | 97 | 221 | 8.0 | 17.0 | 0.00 | 0.00 | 0.00 | 48 | 1009.6 |
| 20260903214534 | 97 | 147 | 6.0 | 15.0 | 0.00 | 0.00 | 0.00 | 48 | 1009.4 |
| 20260903213036 | 97 | 182 | 6.0 | 22.0 | 0.00 | 0.00 | 0.00 | 48 | 1009.7 |
| 20260903211523 | 98 | 184 | 7.0 | 14.0 | 0.00 | 0.00 | 0.00 | 47 | 1009.7 |
| 20260903210020 | 98 | 172 | 5.0 | 15.0 | 0.00 | 0.00 | 0.00 | 47 | 1009.9 |
| 20260903204519 | 98 | 165 | 6.0 | 12.0 | 0.00 | 0.00 | 0.00 | 47 | 1010.1 |
| 20260903203017 | 98 | 167 | 8.0 | 17.0 | 0.00 | 0.00 | 0.00 | 46 | 1010.3 |
| 20260903201516 | 98 | 169 | 8.0 | 16.0 | 0.00 | 0.00 | 0.00 | 46 | 1010.5 |
| 20260903200015 | 98 | 192 | 6.0 | 16.0 | 0.00 | 0.00 | 0.00 | 46 | 1010.3 |
| 20260903194513 | 98 | 207 | 5.0 | 12.0 | 0.00 | 0.00 | 0.00 | 49 | 1010.5 |
| 20260903193016 | 98 | 230 | 8.0 | 15.0 | 0.00 | 0.00 | 0.00 | 47 | 1010.7 |
| 20260903191507 | 98 | 259 | 7.0 | 16.0 | 0.00 | 0.00 | 0.00 | 48 | 1010.9 |
| 20260903190002 | 97 | 171 | 4.0 | 13.0 | 0.00 | 0.00 | 0.00 | 49 | 1011.1 |
| 20260903184607 | 97 | 215 | 6.0 | 15.0 | 0.00 | 0.00 | 0.00 | 49 | 1011.4 |
| 20260903183055 | 97 | 158 | 8.0 | 13.0 | 0.00 | 0.00 | 0.00 | 48 | 1011.5 |
| 20260903181555 | 96 | 182 | 6.0 | 16.0 | 0.00 | 0.00 | 0.00 | 50 | 1011.7 |
| 20260903180046 | 96 | 194 | 6.0 | 17.0 | 0.00 | 0.00 | 0.00 | 50 | 1011.9 |